FW8003 Weather Reports


Display with metric or nautical units.
time (UTC)temp
F
wind
direction
speed
MPH
gust
MPH
rain 1hr
in
rain 24hr
in
rain mn
in
humidity
%
barometer
mb
20260502130515 53 23 1.0 4.0 0.00 0.69 0.00 95 1018.8
20260502123516 51 343 0.0 2.0 0.00 0.99 0.00 94 1018.1
20260502123035 51 0 0.0 1.0 0.00 0.99 0.00 94 1018.1
20260502122516 51 0 0.0 2.0 0.00 0.99 0.00 94 1018.0
20260502122016 51 0 0.0 2.0 0.00 0.99 0.00 94 1018.1
20260502121535 51 0 0.0 0.0 0.00 0.99 0.00 94 1017.9
20260502121018 51 0 0.0 0.0 0.00 0.99 0.00 94 1017.8
20260502120516 51 0 0.0 0.0 0.00 0.99 0.00 94 1017.8
20260502115517 51 0 0.0 0.0 0.00 1.28 0.00 94 1017.8
20260502115015 51 0 0.0 0.0 0.00 1.28 0.00 94 1017.7
20260502114536 51 0 0.0 0.0 0.00 1.28 0.00 94 1017.7
20260502114016 51 0 0.0 0.0 0.00 1.28 0.00 94 1017.6
20260502113519 51 0 0.0 0.0 0.00 1.28 0.00 94 1017.5
20260502113036 51 0 0.0 1.0 0.00 1.28 0.00 94 1017.5
20260502112516 51 0 0.0 1.0 0.00 1.28 0.00 94 1017.4
20260502112016 51 0 0.0 1.0 0.00 1.28 0.00 94 1017.3
20260502111535 51 0 0.0 1.0 0.00 1.28 0.00 94 1017.3
20260502111016 51 0 0.0 1.0 0.00 1.28 0.00 94 1017.2
20260502110516 51 0 0.0 1.0 0.00 1.28 0.00 93 1017.1
20260502110036 51 0 0.0 0.0 0.00 1.28 0.00 93 1017.0
20260502105516 51 0 0.0 0.0 0.00 1.37 0.00 93 1016.9
20260502105015 51 0 0.0 1.0 0.00 1.37 0.00 94 1016.9
20260502104535 51 0 0.0 1.0 0.00 1.37 0.00 93 1016.9
20260502104015 51 0 0.0 1.0 0.00 1.37 0.00 93 1016.8
20260502103517 51 0 0.0 1.0 0.00 1.37 0.00 93 1016.8
20260502103034 51 0 0.0 2.0 0.00 1.37 0.00 93 1016.7
20260502102515 51 0 0.0 2.0 0.00 1.37 0.00 93 1016.7
20260502102017 51 5 0.0 3.0 0.00 1.37 0.00 93 1016.8
20260502101535 51 5 1.0 3.0 0.00 1.37 0.00 93 1016.7
20260502101016 51 0 0.0 3.0 0.00 1.37 0.00 93 1016.6
20260502100516 51 33 0.0 4.0 0.00 1.37 0.00 93 1016.6
20260502091534 52 0 0.0 2.0 0.00 1.54 0.00 92 1015.9
20260502091017 52 9 0.0 2.0 0.00 1.54 0.00 92 1015.6
20260502090518 52 0 0.0 2.0 0.00 1.54 0.00 92 1015.7
20260502071018 53 0 0.0 2.0 0.00 1.77 0.00 93 1015.5
20260502070518 53 0 0.0 2.0 0.00 1.77 0.00 93 1015.5
20260502070047 53 284 0.0 2.0 0.00 1.77 0.00 93 1015.4
20260502065516 53 0 0.0 4.0 0.00 1.78 0.00 93 1015.3
20260502065016 53 269 1.0 6.0 0.00 1.78 0.00 93 1015.4
20260502064542 54 0 0.0 6.0 0.00 1.78 0.00 93 1015.3
20260502064016 54 277 1.0 6.0 0.00 1.78 0.00 93 1015.3
20260502063517 54 0 0.0 3.0 0.00 1.78 0.00 93 1015.3
20260502063036 54 0 0.0 4.0 0.00 1.78 0.00 93 1015.3
20260502062516 53 0 0.0 4.0 0.00 1.78 0.00 93 1015.3
20260502062018 53 324 1.0 4.0 0.00 1.78 0.00 94 1015.4
20260502061536 53 0 0.0 2.0 0.00 1.78 0.00 94 1015.2
20260502061015 53 355 0.0 2.0 0.00 1.78 0.00 94 1015.3
20260502060516 53 0 0.0 2.0 0.00 1.78 0.00 94 1015.3
20260502060035 53 0 0.0 4.0 0.00 1.78 0.00 94 1015.3
20260502055517 53 349 0.0 4.0 0.00 1.80 0.00 94 1015.4
20260502055018 53 228 0.0 3.0 0.00 1.80 0.00 94 1015.3
20260502054535 53 0 0.0 3.0 0.00 1.80 0.00 94 1015.3
20260502054016 53 184 0.0 3.0 0.00 1.80 0.00 94 1015.3
20260502053515 53 289 1.0 3.0 0.00 1.80 0.00 94 1015.2
20260502053032 53 0 0.0 4.0 0.00 1.80 0.00 94 1015.3
20260502052517 53 240 0.0 4.0 0.00 1.80 0.00 94 1015.3
20260502052017 53 32 1.0 6.0 0.00 1.80 0.00 94 1015.2
20260502051538 53 0 0.0 6.0 0.00 1.80 0.00 94 1015.3
20260502051018 53 271 1.0 5.0 0.00 1.80 0.00 94 1015.4
20260502050517 53 316 1.0 9.0 0.00 1.80 0.00 94 1015.4
20260502050035 54 312 3.0 9.0 0.00 1.80 0.00 94 1015.2
20260502045516 54 9 0.0 6.0 0.00 1.80 1.80 95 1015.1
20260502045019 54 329 2.0 10.0 0.00 1.80 1.80 94 1015.1
20260502044539 54 336 2.0 10.0 0.00 1.80 1.80 95 1015.2
20260502044015 54 0 1.0 5.0 0.00 1.80 1.80 95 1015.0
20260502043518 54 192 1.0 5.0 0.00 1.80 1.80 95 1015.1
20260502043041 54 0 2.0 5.0 0.00 1.80 1.80 95 1015.1
20260502042516 54 320 1.0 6.0 0.00 1.80 1.80 95 1015.1
20260502042018 54 0 1.0 6.0 0.00 1.80 1.80 95 1015.2
20260502041535 54 299 1.0 4.0 0.00 1.80 1.80 95 1015.3
20260502041015 54 322 1.0 3.0 0.00 1.80 1.80 95 1015.2
20260502040516 54 53 0.0 5.0 0.00 1.80 1.80 95 1015.2
20260502040035 54 0 0.0 5.0 0.00 1.80 1.80 95 1015.2
20260502035515 54 0 1.0 4.0 0.00 1.80 1.80 95 1015.2
20260502035016 54 346 0.0 4.0 0.00 1.80 1.80 95 1015.2
20260502034539 54 9 0.0 3.0 0.00 1.80 1.80 95 1015.3
20260502034019 54 326 0.0 5.0 0.00 1.80 1.80 95 1015.2
20260502033518 54 0 0.0 5.0 0.00 1.80 1.80 95 1015.3
20260502033040 54 303 1.0 8.0 0.00 1.80 1.80 95 1015.2
20260502032516 54 355 2.0 8.0 0.00 1.80 1.80 95 1015.1
20260502032016 54 343 1.0 5.0 0.00 1.80 1.80 95 1015.1
20260502031536 55 342 0.0 4.0 0.00 1.80 1.80 95 1015.1
20260502031018 55 303 1.0 4.0 0.00 1.80 1.80 95 1014.9
20260502030516 55 328 1.0 4.0 0.00 1.80 1.80 95 1014.7
20260502030035 55 344 1.0 6.0 0.00 1.80 1.80 95 1014.7
20260502025515 55 318 1.0 6.0 0.00 1.80 1.80 95 1014.5
20260502025015 55 338 1.0 6.0 0.00 1.80 1.80 95 1014.0
20260502024536 55 340 1.0 6.0 0.00 1.80 1.80 95 1013.9
20260502024017 55 0 0.0 6.0 0.00 1.80 1.80 95 1013.5
20260502023516 55 312 0.0 6.0 0.00 1.80 1.80 95 1013.3
20260502023034 55 286 1.0 6.0 0.00 1.80 1.80 95 1013.1
20260502022518 55 0 0.0 3.0 0.00 1.80 1.80 95 1013.3
20260502022016 55 318 0.0 5.0 0.01 1.80 1.80 95 1013.4
20260502021535 55 237 1.0 6.0 0.01 1.80 1.80 95 1013.4
20260502021018 55 325 1.0 6.0 0.01 1.80 1.80 95 1013.6
20260502020519 54 39 1.0 5.0 0.01 1.80 1.80 95 1013.5
20260502020036 54 217 1.0 8.0 0.01 1.80 1.80 95 1013.4
20260502015519 54 355 0.0 8.0 0.01 1.80 1.80 95 1013.5
20260502015017 54 306 1.0 9.0 0.01 1.80 1.80 95 1013.4
20260502014550 55 0 1.0 9.0 0.02 1.80 1.80 95 1013.5
20260502014017 54 0 1.0 8.0 0.02 1.80 1.80 95 1013.1
20260502013517 55 246 2.0 8.0 0.02 1.80 1.80 95 1012.9
20260502013032 55 0 1.0 7.0 0.02 1.80 1.80 95 1012.9
20260502012517 55 0 0.0 7.0 0.02 1.80 1.80 95 1013.2
20260502012017 55 179 1.0 9.0 0.02 1.79 1.79 95 1013.3
20260502011538 55 346 2.0 9.0 0.02 1.79 1.79 95 1013.3
20260502011017 55 0 1.0 8.0 0.02 1.79 1.79 95 1013.2
20260502010517 55 0 2.0 8.0 0.02 1.79 1.79 95 1012.9
20260502010036 55 36 2.0 8.0 0.02 1.79 1.79 95 1012.5
20260502005517 55 0 1.0 6.0 0.03 1.79 1.79 95 1012.2
20260502005017 55 304 2.0 5.0 0.03 1.78 1.78 95 1012.1
20260502004535 56 5 1.0 5.0 0.04 1.78 1.78 95 1012.3
20260502004017 56 49 1.0 4.0 0.05 1.78 1.78 95 1012.3
20260502003517 56 331 1.0 6.0 0.06 1.78 1.78 95 1012.4
20260502003035 56 355 1.0 10.0 0.06 1.78 1.78 95 1012.9
20260502002517 56 338 1.0 10.0 0.05 1.77 1.77 95 1012.9
20260502002018 56 330 2.0 10.0 0.05 1.77 1.77 95 1012.8
20260502001532 57 355 0.0 5.0 0.06 1.77 1.77 95 1012.7
20260502001018 57 0 2.0 6.0 0.06 1.77 1.77 95 1012.3
20260502000517 57 0 2.0 6.0 0.06 1.77 1.77 95 1012.1
20260502000045 57 292 1.0 4.0 0.06 1.76 1.76 95 1012.0
20260501235518 57 327 1.0 3.0 0.08 1.76 1.76 95 1011.8
20260501235017 57 346 0.0 3.0 0.07 1.75 1.75 95 1011.9
20260501234537 57 0 0.0 3.0 0.06 1.74 1.74 95 1011.8
20260501234019 58 320 1.0 3.0 0.04 1.72 1.72 95 1011.8
20260501233517 58 0 0.0 4.0 0.04 1.72 1.72 95 1011.9
20260501233036 58 35 0.0 4.0 0.04 1.72 1.72 95 1011.7
20260501232516 58 321 1.0 5.0 0.04 1.72 1.72 95 1011.5
20260501232023 58 0 1.0 8.0 0.03 1.71 1.71 95 1011.0
20260501231536 58 173 1.0 8.0 0.03 1.71 1.71 95 1010.7
20260501231016 58 96 1.0 8.0 0.03 1.71 1.71 95 1010.3
20260501230520 58 202 1.0 7.0 0.03 1.71 1.71 95 1010.4
20260501230034 58 0 0.0 3.0 0.02 1.69 1.69 95 1010.5
20260501225516 58 0 1.0 7.0 0.01 1.68 1.68 95 1010.7
20260501225017 58 48 1.0 7.0 0.01 1.68 1.68 95 1010.8
20260501224533 58 0 1.0 7.0 0.01 1.68 1.68 95 1010.6
20260501224016 58 246 1.0 9.0 0.01 1.68 1.68 95 1010.0
20260501223516 58 265 2.0 9.0 0.01 1.68 1.68 95 1009.2
20260501223041 58 207 2.0 9.0 0.02 1.68 1.68 95 1008.5
20260501222516 58 165 2.0 5.0 0.02 1.68 1.68 95 1008.6
20260501222019 58 246 1.0 7.0 0.02 1.68 1.68 95 1009.3
20260501221535 58 0 1.0 7.0 0.03 1.68 1.68 95 1009.8
20260501221016 58 263 0.0 4.0 0.03 1.68 1.68 95 1009.7
20260501220519 58 318 0.0 4.0 0.03 1.68 1.68 95 1010.0
20260501220035 58 234 2.0 4.0 0.03 1.67 1.67 95 1010.2
20260501215517 59 243 1.0 4.0 0.05 1.67 1.67 95 1010.3
20260501215017 58 0 1.0 4.0 0.05 1.67 1.67 95 1011.2
20260501214539 59 360 0.0 5.0 0.05 1.67 1.67 95 1011.0
20260501214017 59 258 1.0 5.0 0.05 1.67 1.67 95 1010.8
20260501213516 59 321 0.0 4.0 0.05 1.67 1.67 95 1011.0
20260501213032 59 338 1.0 4.0 0.04 1.66 1.66 95 1010.9
20260501212516 59 231 1.0 3.0 0.04 1.66 1.66 95 1010.5
20260501212016 59 333 0.0 8.0 0.04 1.66 1.66 95 1010.8
20260501211532 59 0 1.0 8.0 0.04 1.65 1.65 95 1010.9
20260501211018 59 5 1.0 5.0 0.04 1.65 1.65 95 1010.7
20260501210516 59 17 0.0 6.0 0.05 1.65 1.65 95 1010.2
20260501210031 59 0 1.0 6.0 0.05 1.64 1.64 95 1009.4
20260501205516 59 352 1.0 4.0 0.05 1.62 1.62 95 1008.2
20260501205017 59 0 1.0 4.0 0.06 1.62 1.62 95 1009.2
20260501204536 59 274 0.0 3.0 0.06 1.62 1.62 95 1010.1
20260501204015 59 350 0.0 5.0 0.06 1.62 1.62 95 1009.6
20260501203516 59 0 1.0 6.0 0.07 1.62 1.62 95 1009.8
20260501203036 59 0 1.0 6.0 0.07 1.62 1.62 95 1009.3
20260501202516 60 320 1.0 6.0 0.07 1.62 1.62 95 1009.4
20260501202016 60 284 1.0 4.0 0.07 1.62 1.62 95 1009.2
20260501201546 60 320 0.0 5.0 0.06 1.61 1.61 95 1009.8
20260501201017 60 292 1.0 5.0 0.06 1.61 1.61 95 1009.6
20260501200516 60 25 1.0 5.0 0.05 1.60 1.60 95 1009.9
20260501200035 60 328 1.0 4.0 0.03 1.58 1.58 95 1010.1
20260501195516 60 5 1.0 4.0 0.02 1.57 1.57 95 1010.6
20260501195016 60 342 1.0 6.0 0.01 1.56 1.56 95 1010.3
20260501194543 60 334 1.0 8.0 0.01 1.56 1.56 95 1009.8
20260501194019 60 5 2.0 8.0 0.01 1.56 1.56 95 1010.1
20260501193517 60 345 1.0 6.0 0.00 1.55 1.55 95 1009.4
20260501193037 61 24 1.0 4.0 0.00 1.55 1.55 95 1009.8
20260501192516 61 0 0.0 4.0 0.00 1.55 1.55 95 1010.0
20260501192016 61 121 1.0 4.0 0.00 1.55 1.55 95 1009.9
20260501191535 60 0 1.0 4.0 0.00 1.55 1.55 95 1009.4
20260501191017 60 355 0.0 4.0 0.00 1.55 1.55 95 1009.1
20260501190516 60 194 1.0 5.0 0.00 1.55 1.55 95 1009.0
20260501190035 61 0 1.0 5.0 0.00 1.55 1.55 95 1008.5
20260501185517 61 111 1.0 5.0 0.00 1.55 1.55 95 1008.7
20260501185017 61 339 1.0 5.0 0.00 1.55 1.55 95 1009.1
20260501184535 61 350 1.0 5.0 0.00 1.55 1.55 95 1009.2
20260501184018 61 172 1.0 5.0 0.01 1.55 1.55 95 1008.9
20260501183517 61 320 1.0 5.0 0.01 1.55 1.55 96 1008.3
20260501183047 61 42 1.0 7.0 0.02 1.55 1.55 95 1008.3
20260501182516 60 254 1.0 7.0 0.02 1.55 1.55 95 1008.1
20260501182021 60 0 2.0 8.0 0.02 1.55 1.55 95 1007.6
20260501181538 60 325 2.0 9.0 0.02 1.55 1.55 95 1007.5
20260501181018 60 140 2.0 10.0 0.03 1.55 1.55 95 1007.6
20260501180516 61 325 2.0 10.0 0.03 1.55 1.55 95 1007.1
20260501180042 61 319 2.0 10.0 0.03 1.55 1.55 96 1006.7
20260501175515 61 321 1.0 5.0 0.03 1.55 1.55 96 1008.2
20260501175017 61 159 1.0 6.0 0.03 1.55 1.55 95 1008.9
20260501174543 61 360 2.0 6.0 0.03 1.55 1.55 95 1009.5
20260501174017 61 0 0.0 3.0 0.02 1.54 1.54 96 1009.6
20260501173517 61 0 0.0 4.0 0.02 1.54 1.54 96 1010.0
20260501173032 61 340 0.0 4.0 0.01 1.53 1.53 95 1010.7
20260501172517 61 350 0.0 4.0 0.02 1.53 1.53 95 1010.9
20260501172022 60 0 1.0 5.0 0.02 1.53 1.53 95 1010.5
20260501171534 60 298 1.0 13.0 0.02 1.53 1.53 95 1010.7
20260501171017 61 350 2.0 13.0 0.02 1.52 1.52 95 1010.6
20260501170516 61 28 2.0 6.0 0.04 1.52 1.52 95 1010.2
20260501170048 61 0 1.0 6.0 0.05 1.52 1.52 95 1010.3
20260501165517 61 355 1.0 5.0 0.06 1.52 1.52 95 1010.8
20260501165017 61 239 1.0 5.0 0.08 1.52 1.52 95 1010.7
20260501164536 61 327 1.0 6.0 0.09 1.52 1.52 95 1010.8
20260501164017 61 261 1.0 6.0 0.11 1.52 1.52 95 1010.8
20260501163519 61 15 1.0 6.0 0.13 1.52 1.52 95 1010.9
20260501163040 61 308 1.0 5.0 0.13 1.52 1.52 95 1011.2
20260501162518 61 0 1.0 3.0 0.13 1.51 1.51 95 1011.6
20260501162017 61 360 1.0 3.0 0.14 1.51 1.51 95 1012.1
20260501161535 61 329 1.0 4.0 0.14 1.51 1.51 95 1012.4
20260501161019 61 0 0.0 4.0 0.13 1.50 1.50 95 1012.7
20260501160518 61 23 1.0 4.0 0.11 1.48 1.48 95 1012.9
20260501160034 61 0 0.0 4.0 0.10 1.47 1.47 95 1012.8
20260501155517 61 300 0.0 2.0 0.09 1.46 1.46 95 1012.8
20260501155020 61 0 0.0 2.0 0.07 1.44 1.44 95 1013.0
20260501154549 61 344 0.0 3.0 0.05 1.42 1.42 95 1013.0
20260501154017 61 0 0.0 3.0 0.03 1.40 1.40 95 1012.9
20260501153517 61 0 0.0 3.0 0.02 1.39 1.39 95 1012.9
20260501153037 61 315 0.0 8.0 0.01 1.38 1.38 95 1012.7
20260501152519 61 0 1.0 8.0 0.02 1.38 1.38 95 1012.1
20260501152018 61 0 0.0 8.0 0.02 1.37 1.37 95 1011.5
20260501151537 61 15 2.0 6.0 0.04 1.37 1.37 95 1011.3
20260501151018 61 306 0.0 4.0 0.06 1.37 1.37 95 1011.0
20260501150519 61 221 1.0 4.0 0.07 1.37 1.37 95 1010.9
20260501150035 61 0 1.0 6.0 0.08 1.37 1.37 95 1010.9
20260501145518 61 261 1.0 6.0 0.10 1.37 1.37 95 1010.8
20260501145022 61 198 1.0 11.0 0.11 1.37 1.37 95 1010.4
20260501144535 61 16 1.0 11.0 0.12 1.37 1.37 95 1010.6
20260501144020 61 225 2.0 11.0 0.13 1.37 1.37 95 1011.0